When you browse on this site, cookies collect data to enhance your experience and personalize the content and advertising you see.
Visit our Privacy Policy to learn more. By continuing to use the site, you agree to this use of cookies and data.
  • In Czech Republic
  • List of Countries
  • For 7 days
  • Water Temperature
  • Satellite Maps
  • Weather Map
  • Weather Widgets
  • user-avatar
    Login

    Hourly Weather Sveti Vlas

    Today, 19 November, Monday

    Time Temperature Precipitation Wind Pressure Humidity
    00:00 +5°C° 2 mm 8 mps 754 mmHg 92%
    01:00 +5°C° 2 mm 7 mps 753 mmHg 93%
    02:00 +6°C° 0 mm 7 mps 752 mmHg 96%
    03:00 +7°C° 2.1 mm 6 mps 752 mmHg 96%
    04:00 +8°C° 2.1 mm 6 mps 751 mmHg 96%
    05:00 +8°C° 2.1 mm 5 mps 750 mmHg 97%
    06:00 +8°C° 0.9 mm 5 mps 750 mmHg 96%
    07:00 +8°C° 0.9 mm 5 mps 750 mmHg 95%
    08:00 +8°C° 0 mm 5 mps 750 mmHg 94%
    09:00 +8°C° 0.3 mm 5 mps 750 mmHg 89%
    10:00 +8°C° 0.3 mm 5 mps 751 mmHg 85%
    11:00 +8°C° 0.3 mm 5 mps 751 mmHg 80%
    12:00 +8°C° 0 mm 5 mps 752 mmHg 78%
    13:00 +8°C° 0 mm 6 mps 752 mmHg 75%
    14:00 +7°C° 0 mm 5 mps 753 mmHg 72%
    15:00 +6°C° 0 mm 5 mps 753 mmHg 75%
    16:00 +5°C° 0 mm 5 mps 754 mmHg 77%
    17:00 +5°C° 0 mm 5 mps 755 mmHg 80%
    18:00 +3°C° 0 mm 5 mps 755 mmHg 81%
    19:00 +3°C° 0 mm 5 mps 756 mmHg 82%
    20:00 +3°C° 0 mm 4 mps 756 mmHg 84%
    21:00 +3°C° 0 mm 4 mps 757 mmHg 84%
    22:00 +3°C° 0 mm 4 mps 757 mmHg 84%
    23:00 +3°C° 0 mm 3 mps 758 mmHg 84%

    Tomorrow, 20 November, Tuesday

    Time Temperature Precipitation Wind Pressure Humidity
    00:00 +2°C° 0 mm 3 mps 758 mmHg 85%
    01:00 +2°C° 0 mm 3 mps 758 mmHg 86%
    02:00 +2°C° 0 mm 3 mps 759 mmHg 87%
    03:00 +2°C° 0 mm 3 mps 759 mmHg 87%
    04:00 +2°C° 0 mm 3 mps 759 mmHg 88%
    05:00 +2°C° 0 mm 3 mps 759 mmHg 88%
    06:00 +2°C° 0 mm 3 mps 759 mmHg 88%
    07:00 +2°C° 0 mm 3 mps 760 mmHg 87%
    08:00 +2°C° 0 mm 3 mps 760 mmHg 86%
    09:00 +3°C° 0 mm 3 mps 760 mmHg 82%
    10:00 +4°C° 0 mm 3 mps 760 mmHg 78%
    11:00 +5°C° 0 mm 3 mps 760 mmHg 75%
    12:00 +6°C° 0 mm 4 mps 760 mmHg 76%
    13:00 +6°C° 0 mm 4 mps 759 mmHg 78%
    14:00 +6°C° 0 mm 4 mps 759 mmHg 80%
    15:00 +6°C° 0 mm 4 mps 759 mmHg 83%
    16:00 +6°C° 0 mm 5 mps 759 mmHg 86%
    17:00 +6°C° 0 mm 5 mps 758 mmHg 89%
    18:00 +7°C° 0.2 mm 5 mps 758 mmHg 90%
    19:00 +7°C° 0.2 mm 5 mps 758 mmHg 92%
    20:00 +7°C° 0.2 mm 6 mps 758 mmHg 93%
    21:00 +8°C° 0.6 mm 6 mps 757 mmHg 94%
    22:00 +8°C° 0.6 mm 6 mps 757 mmHg 95%
    23:00 +8°C° 0.6 mm 6 mps 757 mmHg 96%

    Day after tomorrow, 21 November, Wednesday

    Time Temperature Precipitation Wind Pressure Humidity
    00:00 +9°C° 0.8 mm 6 mps 757 mmHg 96%
    01:00 +9°C° 0.8 mm 6 mps 756 mmHg 96%
    02:00 +9°C° 0.8 mm 6 mps 756 mmHg 97%
    03:00 +9°C° 1 mm 6 mps 755 mmHg 97%
    04:00 +9°C° 1 mm 6 mps 755 mmHg 97%
    05:00 +10°C° 1 mm 6 mps 754 mmHg 96%
    06:00 +10°C° 1.3 mm 6 mps 754 mmHg 96%
    07:00 +10°C° 1.3 mm 6 mps 754 mmHg 96%
    08:00 +10°C° 1.3 mm 6 mps 754 mmHg 96%
    09:00 +10°C° 1.4 mm 6 mps 754 mmHg 95%
    10:00 +10°C° 1.4 mm 5 mps 754 mmHg 95%
    11:00 +10°C° 1.4 mm 5 mps 754 mmHg 94%
    12:00 +10°C° 1 mm 5 mps 753 mmHg 93%
    13:00 +10°C° 1 mm 5 mps 753 mmHg 92%
    14:00 +10°C° 1 mm 5 mps 753 mmHg 92%
    15:00 +10°C° 0.6 mm 6 mps 753 mmHg 91%
    16:00 +10°C° 0.6 mm 6 mps 753 mmHg 91%
    17:00 +9°C° 0.6 mm 7 mps 753 mmHg 91%
    18:00 +9°C° 0.9 mm 8 mps 753 mmHg 91%
    19:00 +8°C° 0.9 mm 9 mps 753 mmHg 90%
    20:00 +8°C° 0.9 mm 10 mps 754 mmHg 89%
    21:00 +8°C° 1 mm 10 mps 754 mmHg 89%
    22:00 +7°C° 1 mm 10 mps 754 mmHg 89%
    23:00 +7°C° 1 mm 10 mps 754 mmHg 89%

    22 November, Thursday

    Time Temperature Precipitation Wind Pressure Humidity
    00:00 +7°C° 1.5 mm 10 mps 755 mmHg 89%
    01:00 +7°C° 1.5 mm 10 mps 755 mmHg 89%
    02:00 +6°C° 1.5 mm 11 mps 755 mmHg 89%
    03:00 +6°C° 1.4 mm 11 mps 756 mmHg 89%
    04:00 +6°C° 1.4 mm 11 mps 756 mmHg 88%
    05:00 +6°C° 1.4 mm 11 mps 756 mmHg 88%
    06:00 +4°C° 0.7 mm 11 mps 757 mmHg 87%
    07:00 +5°C° 0.7 mm 10 mps 757 mmHg 87%
    08:00 +5°C° 0.7 mm 10 mps 758 mmHg 86%
    09:00 +3°C° 0.2 mm 10 mps 758 mmHg 85%
    10:00 +3°C° 0.2 mm 9 mps 759 mmHg 84%
    11:00 +3°C° 0.2 mm 9 mps 759 mmHg 82%
    12:00 +3°C° 0.1 mm 9 mps 759 mmHg 80%
    13:00 +3°C° 0.1 mm 9 mps 760 mmHg 78%
    14:00 +4°C° 0.1 mm 8 mps 760 mmHg 76%
    15:00 +4°C° 0 mm 8 mps 760 mmHg 75%
    16:00 +4°C° 0 mm 8 mps 760 mmHg 74%
    17:00 +3°C° 0 mm 7 mps 761 mmHg 74%
    18:00 +3°C° 0 mm 7 mps 761 mmHg 73%
    19:00 +2°C° 0 mm 7 mps 761 mmHg 73%
    20:00 +2°C° 0 mm 6 mps 762 mmHg 73%
    21:00 +1°C° 0 mm 6 mps 762 mmHg 74%
    22:00 +1°C° 0 mm 6 mps 762 mmHg 74%
    23:00 -1°C° 0 mm 6 mps 762 mmHg 75%

    23 November, Friday

    Time Temperature Precipitation Wind Pressure Humidity
    00:00 -1°C° 0 mm 6 mps 763 mmHg 76%
    01:00 -1°C° 0 mm 6 mps 763 mmHg 78%
    02:00 -2°C° 0 mm 6 mps 763 mmHg 79%
    03:00 -2°C° 0 mm 6 mps 763 mmHg 80%
    04:00 -2°C° 0 mm 6 mps 763 mmHg 81%
    05:00 -2°C° 0 mm 6 mps 763 mmHg 82%
    06:00 -2°C° 0 mm 6 mps 764 mmHg 81%
    07:00 -2°C° 0 mm 6 mps 764 mmHg 80%
    08:00 -1°C° 0 mm 5 mps 764 mmHg 80%
    09:00 0°C° 0 mm 5 mps 765 mmHg 74%
    10:00 +1°C° 0 mm 6 mps 765 mmHg 69%
    11:00 +3°C° 0 mm 6 mps 765 mmHg 64%
    12:00 +3°C° 0 mm 6 mps 765 mmHg 63%
    13:00 +4°C° 0 mm 6 mps 765 mmHg 61%
    14:00 +4°C° 0 mm 6 mps 765 mmHg 60%
    15:00 +3°C° 0 mm 5 mps 765 mmHg 63%
    16:00 +3°C° 0 mm 5 mps 765 mmHg 67%
    17:00 +2°C° 0 mm 5 mps 765 mmHg 70%
    18:00 +1°C° 0 mm 5 mps 766 mmHg 72%
    19:00 0°C° 0 mm 5 mps 766 mmHg 74%
    20:00 0°C° 0 mm 5 mps 766 mmHg 75%
    21:00 -1°C° 0 mm 5 mps 766 mmHg 76%
    22:00 -1°C° 0 mm 5 mps 766 mmHg 76%
    23:00 -1°C° 0 mm 5 mps 766 mmHg 76%

    24 November, Saturday

    Time Temperature Precipitation Wind Pressure Humidity
    00:00 -1°C° 0 mm 5 mps 766 mmHg 74%
    01:00 -2°C° 0 mm 5 mps 766 mmHg 73%
    02:00 -2°C° 0 mm 5 mps 765 mmHg 72%
    03:00 -2°C° 0 mm 5 mps 765 mmHg 72%
    04:00 -2°C° 0 mm 5 mps 765 mmHg 72%
    05:00 -2°C° 0 mm 4 mps 765 mmHg 72%
    06:00 -1°C° 0 mm 4 mps 765 mmHg 72%
    07:00 -1°C° 0 mm 4 mps 765 mmHg 71%
    08:00 -1°C° 0 mm 4 mps 765 mmHg 71%
    09:00 0°C° 0 mm 4 mps 765 mmHg 68%
    10:00 +3°C° 0 mm 4 mps 765 mmHg 65%
    11:00 +5°C° 0 mm 3 mps 765 mmHg 63%
    12:00 +5°C° 0 mm 3 mps 764 mmHg 63%
    13:00 +7°C° 0 mm 3 mps 764 mmHg 63%
    14:00 +8°C° 0 mm 3 mps 763 mmHg 63%
    15:00 +7°C° 0 mm 3 mps 763 mmHg 68%
    16:00 +5°C° 0 mm 3 mps 763 mmHg 73%
    17:00 +5°C° 0 mm 2 mps 763 mmHg 77%
    18:00 +5°C° 0 mm 2 mps 763 mmHg 80%
    19:00 +4°C° 0 mm 2 mps 762 mmHg 84%
    20:00 +5°C° 0 mm 1 mps 762 mmHg 87%
    21:00 +5°C° 0 mm 1 mps 762 mmHg 88%
    22:00 +5°C° 0 mm 1 mps 762 mmHg 90%
    23:00 +4°C° 0 mm 1 mps 762 mmHg 91%
    Show more